{"data":{"norad_id":64194,"intl_designator":"2025-113AA","name":"STARLINK-34237","alt_names":[],"object_type":"PAYLOAD","status":"ACTIVE","operator":null,"country":"US","launch_date":"2025-05-28","launch_site_code":"AFETR","launch_vehicle":null,"mission":null,"orbit_class":"UNKNOWN","rcs_meters":null,"size_class":null,"mass_kg":null,"dimensions":null,"purposes":["comms"],"wikipedia_slug":null,"has_3d_model":false,"image_url":null,"decayed_at":null,"tle_current":{"epoch":"2026-09-20T05:34:12.703008Z","epoch_age_seconds":163634,"freshness":"FRESH","line1":"1 64194U 25113AA  26263.23209147  .00009325  00000+0  31175-3 0  9991","line2":"2 64194  53.1608 265.8491 0001725  74.6736 285.4456 15.31712031 74832","mean_motion":15.31712031,"eccentricity":0.0001725,"inclination_deg":53.1608,"raan_deg":265.8491,"arg_perigee_deg":74.6736,"mean_anomaly_deg":285.4456,"bstar":0.00031175,"rev_number":7483,"period_min":94.012449524202,"perigee_km":469.52270658022,"apogee_km":471.88555677065,"semimajor_km":6848.8411316754,"source":"CELESTRAK","updated_at":"2026-09-21T09:00:35.268960Z"}}}